Welcome to the New NWS' Forecast!
Most changes are behind the scenes, but click here for differences you might notice.

Regional Weather Roundup (RWR)

Issued by National Weather Service (NWS)

                            
591 
ASUS43 KDMX 201301
RWRIA 

WEATHER ROUNDUP FOR IOWA
NATIONAL WEATHER SERVICE DES MOINES IA
800 AM CDT MON AUG 20 2018

NOTE: "FAIR" INDICATES FEW OR NO CLOUDS BELOW 12,000 FEET WITH NO
SIGNIFICANT WEATHER AND/OR OBSTRUCTIONS TO VISIBILITY.

* - THESE STATIONS ARE NOT NWS STATIONS...THUS NOT UNDER NWS
QUALITY CONTROL.  THEY ALSO DO NOT REPORT WEATHER SUCH 
AS PRECIPITATION OR FOG.  

IAZ001>003-012>014-020>022-031>034-043>046-201400-
   NORTHWEST IOWA
  
CITY           SKY/WX    TMP DP  RH WIND       PRES   REMARKS
CARROLL *      LGT RAIN  66  66 100 N23G33    29.70F                  
CHEROKEE *     LGT RAIN  65  65 100 N13       29.84S                  
DENISON *      RAIN      64  64 100 N18G29    29.75S                  
LE MARS *      CLOUDY    64  64 100 N13       29.86R                  
ORANGE CITY *  LGT RAIN  66  64  94 NE7       29.88S                  
SHELDON *      CLOUDY    66  66 100 NE14G21   29.88R                  
SIOUX CITY     CLOUDY    66  64  93 N16       29.84S                  
SPENCER        LGT RAIN  67  65  93 MISG      29.87S                  
STORM LAKE *   RAIN      64  64 100 N18G26    29.81F                  
$$
 
IAZ055>058-069>071-079>083-090>094-201400-
   SOUTHWEST IOWA
  
CITY           SKY/WX    TMP DP  RH WIND       PRES   REMARKS
ATLANTIC *     LGT RAIN  68  68 100 N16       29.62S VSB 3/4          
AUDUBON *      LGT RAIN  64  63  94 N15G24    29.67S                  
CLARINDA *     FOG       66  66 100 W6        29.60F VSB 3/4          
COUNCIL BLFS * HVY RAIN  64  64 100 N18G36    29.69R VSB 3/4          
CRESTON *      CLOUDY    66  66 100 S7        29.62S                  
HARLAN  *      RAIN      64  64 100 N28G39    29.66S                  
LAMONI         CLOUDY    68  66  93 S7        29.63S FOG              
RED OAK *      LGT RAIN  68  68 100 N14G24    29.59S VSB 3/4          
SHENANDOAH *   RAIN      66  66 100 NW14G28   29.60S VSB 3/4          
$$
 
IAZ047>049-059>061-072>074-084-201400-
   CENTRAL IOWA
  
CITY           SKY/WX    TMP DP  RH WIND       PRES   REMARKS
AMES           LGT RAIN  69  67  93 NE12      29.68F FOG              
ANKENY *       CLOUDY    70  68  94 E14G20    29.67R                  
BOONE *        CLOUDY    68  66  94 E12G21    29.69S                  
CHARITON *     CLOUDY    68  68 100 S8        29.64S FOG              
DES MOINES     LGT RAIN  70  69  97 E13G21    29.63S FOG              
GRINNELL*      RAIN      67  66  96 E14       29.71F                  
KNOXVILLE *    CLOUDY    70  70 100 VRB7G14   29.65S                  
MARSHALLTOWN   LGT RAIN  70  70 100 E15G23    29.72S FOG              
NEWTON *       CLOUDY    68  68 100 E15G22    29.68S FOG              
PELLA *        CLOUDY    68  68  98 E9        29.68S FOG              
$$
 
IAZ004>006-015-016-023>025-035-036-201400-
   NORTH CENTRAL IOWA
  
CITY           SKY/WX    TMP DP  RH WIND       PRES   REMARKS
ALGONA *       HVY RAIN  66  64  94 NE12G18   29.84S                  
CLARION *      CLOUDY    68  66  94 NE15      29.78R FOG              
ESTHERVILLE    RAIN      65  65 100 N13       29.88S FOG              
FORT DODGE *   RAIN      66  64  94 NE13G25   29.76F FOG              
MASON CITY     RAIN      69  68  96 NE16      29.83F FOG              
FOREST CITY *  LGT RAIN  68  68 100 NE14      29.84S                  
IOWA FALLS *     N/A     70  68  95 E17       29.76R                  
$$

IAZ007>011-017>019-026>030-037>042-050>054-066-201400-
   NORTHEAST IOWA
  
CITY           SKY/WX    TMP DP  RH WIND       PRES   REMARKS
CEDAR RAPIDS   CLOUDY    70  70 100 E14G23    29.75S FOG              
CHARLES CITY * FAIR      70  66  88 E13G29    29.83S FOG              
CLINTON *      LGT RAIN  69  68  96 E15       29.82S                  
DECORAH *      FAIR      70  68  94 E9        29.86R                  
DUBUQUE        LGT RAIN  70  66  87 E13       29.84F                  
MONTICELLO *     N/A     70  70 100 E10G17    29.80R                  
OELWEIN *      RAIN      68  68 100 NE9       29.82F VSB 1            
WATERLOO       LGT RAIN  69  68  96 E21G29    29.76F FOG              
$$
 
IAZ064-065-067-068-078-201400-
   EAST CENTRAL IOWA
  
CITY           SKY/WX    TMP DP  RH WIND       PRES   REMARKS
DAVENPORT      HVY RAIN  69  67  93 E14       29.80F FOG              
IOWA CITY      CLOUDY    72  69  90 E12G21    29.76R                  
MT. PLEASANT * CLOUDY    70  70 100 SE8       29.73S                  
MUSCATINE *    CLOUDY    72  70  94 SE15      29.76R FOG              
QUAD CITIES    LGT RAIN  71  69  93 E14       29.78F FOG              
$$
 
IAZ062-063-075>077-085>089-095>099-201400-
   SOUTHEAST IOWA
  
CITY           SKY/WX    TMP DP  RH WIND       PRES   REMARKS
BURLINGTON     CLOUDY    71  69  93 S12G20    29.74R                  
FAIRFIELD *    PTSUNNY   70  68  94 SE15      29.69F FOG              
FORT MADISON * CLOUDY    72  72 100 SE7       29.74S                  
KEOKUK *       CLOUDY    72  70  94 SE9       29.72R                  
OSKALOOSA *    CLOUDY    69  68  98 E14       29.69S                  
OTTUMWA        PTSUNNY   71  70  96 E12       29.68S                  
WASHINGTON *   LGT RAIN  68  68 100 SE13G25   29.73F                  
$$

ABBREVIATIONS USED IN REMARKS
   TC - TEMPERATURES IN CELSIUS
  WCI - WIND CHILL INDEX
   HX - HEAT INDEX
  VSB - VISIBILITY  
$$